AO-07 1 07530U 74089B 24333.28307579 -.00000019 00000-0 17360-3 0 9990 2 07530 101.9895 329.5335 0012335 130.3506 241.3201 12.53683086289602 UO-11 1 14781U 84021B 24333.37664905 .00005007 00000-0 54939-3 0 9996 2 14781 97.7279 298.0622 0006217 252.6182 107.4355 14.88125768172897 AO-27 1 22825U 93061C 24333.41080826 .00000524 00000-0 21797-3 0 9992 2 22825 98.7674 27.7302 0007696 324.6315 35.4356 14.30666937626099 FO-29 1 24278U 96046B 24333.63192148 .00000016 00000-0 49613-4 0 9991 2 24278 98.5868 246.7545 0350893 122.2661 241.2989 13.53223223396920 NOAA-15 1 25338U 98030A 24333.76582094 .00000645 00000-0 28375-3 0 9990 2 25338 98.5547 357.3686 0009905 197.8992 162.1841 14.26809808380906 GO-32 1 25397U 98043D 24333.36081678 .00000449 00000-0 21500-3 0 9992 2 25397 98.9460 302.7344 0002214 64.0072 296.1334 14.24199449370785 ISS 1 25544U 98067A 24333.87528729 .00020789 00000-0 37100-3 0 9993 2 25544 51.6383 219.4832 0006779 279.2376 80.7846 15.50003122484099 NO-44 1 26931U 01043C 24333.83001102 .00000937 00000-0 38301-3 0 9996 2 26931 67.0510 266.1201 0007075 261.5150 98.5150 14.31518723209676 SO-50 1 27607U 02058C 24333.57524194 .00004793 00000-0 63809-3 0 9991 2 27607 64.5553 75.7638 0033050 28.6213 331.6697 14.80395136180645 CO-55 1 27844U 03031E 24333.29180648 .00001332 00000-0 60252-3 0 9992 2 27844 98.6783 338.0918 0010357 34.0258 326.1583 14.23666803111132 CO-57 1 27848U 03031J 24331.95748499 .00001065 00000-0 49133-3 0 9999 2 27848 98.6813 336.9211 0010551 52.9875 307.2267 14.23047092110684 RS-22 1 27939U 03042A 24333.82119792 .00004725 00000-0 77306-3 0 9997 2 27939 98.3066 132.9801 0010628 259.5091 234.1822 14.71266854132479 NOAA-18 1 28654U 05018A 24333.80574421 .00000671 00000-0 38015-3 0 9999 2 28654 98.8625 49.3159 0013435 319.2612 40.7555 14.13435736 6511 CO-58 1 28895U 05043F 24332.84009026 .00005551 00000-0 94367-3 0 9995 2 28895 98.2226 109.3170 0014877 197.1517 162.9187 14.69461881 18700 CO-65 1 32785U 08021C 24333.55862179 .00012922 00000-0 10257-2 0 9997 2 32785 97.7706 298.1089 0012383 144.5099 215.6951 15.00569632900093 AAUSAT2 1 32788U 08021F 24333.67753620 .00081144 00000-0 23920-2 0 9996 2 32788 97.6039 316.2306 0003625 33.7937 326.3536 15.34699904903485 CO-66 1 32791U 08021J 24333.16650846 .00022609 00000-0 13685-2 0 9998 2 32791 97.7089 304.3006 0007306 100.5856 259.6197 15.10603419901291 RS-30 1 32953U 08025A 24333.81477162 .00000065 00000-0 39488-3 0 9994 2 32953 82.5034 347.0902 0020660 105.3804 254.9560 12.43154120749583 PRISM 1 33493U 09002B 24333.83025014 .00092979 00000-0 24655-2 0 9991 2 33493 98.1802 37.3758 0007924 35.9776 324.1999 15.37933070864175 NOAA-19 1 33591U 09005A 24333.78127558 .00000641 00000-0 36616-3 0 9999 2 33591 99.0267 31.1638 0013792 184.4503 175.6548 14.13213699814878 SRMSAT 1 37841U 11058D 24333.86812437 .00000867 00000-0 32820-3 0 9991 2 37841 19.9713 240.6190 0011875 105.6191 313.1060 14.11296553678071 RS-40 1 38735U 12041C 24333.83017239 .00000021 00000-0 81280-4 0 9998 2 38735 82.4774 67.2197 0017173 217.1326 142.8567 12.42621109559711 ZACUBE-1 1 39417U 13066B 24333.35453288 .00015455 00000-0 14596-2 0 9990 2 39417 97.7555 286.1994 0046740 339.2376 20.6943 14.92977027596043 Delfi-N3xt 1 39428U 13066N 24333.65313582 .00020803 00000-0 23599-2 0 9993 2 39428 97.8364 248.1202 0090449 274.3315 84.7568 14.83394309590607 GOMX-1 1 39430U 13066Q 24333.72320953 .00005504 00000-0 87995-3 0 9996 2 39430 97.7055 198.1051 0137472 88.7950 272.9001 14.66013584587133 LO-74 1 39440U 13066AA 24333.27292561 .00011091 00000-0 12029-2 0 9993 2 39440 97.8299 273.8613 0068084 96.2310 264.6667 14.86627976592686 AO-73 1 39444U 13066AE 24333.34508368 .00019463 00000-0 16587-2 0 9994 2 39444 97.7393 289.8579 0042778 316.2237 43.5595 14.97073661594625 DTUSAT-2 1 40030U 14033W 24333.59993495 .00017369 00000-0 12848-2 0 9997 2 40030 98.0316 291.1133 0010621 6.5287 353.6073 15.03207506567356 EO-80 1 40032U 14033Y 24333.36414503 .00018435 00000-0 13615-2 0 9990 2 40032 98.0215 290.7779 0007595 301.8038 58.2446 15.03275008567295 XW-2C 1 40906U 15049H 24333.75837663 .00141778 00000-0 13355-2 0 9995 2 40906 97.4585 357.0117 0006851 72.2392 287.9615 15.66608030509993 LILACSAT-2 1 40908U 15049K 24333.86298903 .00021752 00000-0 70121-3 0 9991 2 40908 97.5194 344.3643 0012602 122.6432 237.6027 15.32113780508658 IO-86 1 40931U 15052B 24331.15516653 .00002068 00000-0 18982-3 0 9992 2 40931 6.0006 275.0072 0013182 221.8228 138.0892 14.78373291495468 ChubuSat-2 1 41338U 16012B 24333.49053264 .00013097 00000-0 73773-3 0 9997 2 41338 31.0014 50.6878 0010712 91.5013 268.6853 15.11961790482455 ChubuSat-3 1 41339U 16012C 24333.64829192 .00012337 00000-0 71416-3 0 9994 2 41339 31.0080 49.4627 0010807 95.3064 264.8808 15.10971985482443 Horyu-4 1 41340U 16012D 24333.36958123 .00033709 00000-0 13075-2 0 9994 2 41340 31.0017 339.6314 0009956 211.9946 148.0093 15.24892091483153 Lapan A3 1 41603U 16040E 24333.80151929 .00008964 00000-0 33516-3 0 9993 2 41603 97.1390 340.2797 0009891 230.7350 129.3013 15.27509153468335 Pratham 1 41783U 16059A 24333.50142076 .00002762 00000-0 51227-3 0 9991 2 41783 97.8296 345.1542 0031083 217.1446 142.7607 14.65704994436605 CAS-2T 1 41847U 16066G 24333.43475902 .00003054 00000-0 44478-3 0 9994 2 41847 98.4451 43.4924 0350590 42.4150 320.3575 14.42464432423166 CAS-4B 1 42759U 17034B 24333.55186927 .00048173 00000-0 11757-2 0 9996 2 42759 43.0156 10.6722 0013353 25.8816 334.2706 15.40028969412636 CAS-4A 1 42761U 17034D 24333.60010699 .00049633 00000-0 11987-2 0 9994 2 42761 43.0190 8.5612 0013929 35.8615 324.3174 15.40326930412658 D-SAT 1 42794U 17036AF 24333.67176959 .00019307 00000-0 12049-2 0 9996 2 42794 97.4948 310.0589 0100005 309.5355 49.7065 15.05399145405452 TechnoSat 1 42829U 17042E 24333.79923729 .00009175 00000-0 75643-3 0 9992 2 42829 97.3859 145.9960 0011319 239.8674 120.1429 14.99198018401819 AO-91 1 43017U 17073E 24333.47976407 .00016321 00000-0 90236-3 0 9998 2 43017 97.5519 203.4833 0195953 101.6889 260.6394 14.98970576380222 S-Net D 1 43186U 18014G 24333.21881575 .00013252 00000-0 85948-3 0 9998 2 43186 97.5758 232.3836 0010035 157.3945 202.7728 15.08172920373191 S-Net B 1 43187U 18014H 24333.48751431 .00013226 00000-0 85778-3 0 9997 2 43187 97.5765 232.6097 0011024 152.7906 207.3902 15.08165042373234 S-Net A 1 43188U 18014J 24333.15340748 .00012171 00000-0 78970-3 0 9991 2 43188 97.5768 232.4078 0010796 154.5617 205.6144 15.08172537373189 S-Net C 1 43189U 18014K 24333.48953949 .00012837 00000-0 83236-3 0 9991 2 43189 97.5788 232.7194 0012736 147.5133 212.6881 15.08163200371782 Ten-Koh 1 43677U 18084G 24333.42922378 .00007992 00000-0 67366-3 0 9998 2 43677 98.0783 132.2673 0012829 191.7544 168.3379 14.98405816331292 PO-101 1 43678U 18084H 24333.88866240 .00004994 00000-0 44211-3 0 9997 2 43678 98.0870 137.0652 0008092 196.6715 163.4241 14.96731080331546 QO-100 1 43700U 18090A 24333.38452296 .00000171 00000-0 00000-0 0 9995 2 43700 0.0163 298.8574 0002025 351.9165 301.2895 1.00274094 22007 MinXSS-2 1 43758U 18099A 24333.53620518 .00029466 00000-0 15093-2 0 9996 2 43758 97.5333 33.9367 0015184 110.8212 249.4648 15.16442746327621 AO-95 1 43770U 18099N 24333.11938807 .00019082 00000-0 11353-2 0 9995 2 43770 97.5239 27.8190 0012681 157.1405 203.0392 15.11218249327270 RANGE-B 1 43772U 18099Q 24333.40694762 .00034697 00000-0 16690-2 0 9996 2 43772 97.5039 32.4834 0005043 65.1926 294.9833 15.18695234327568 RANGE-A 1 43773U 18099R 24333.58595936 .00011707 00000-0 81015-3 0 9990 2 43773 97.4802 21.6760 0013402 129.0595 231.1827 15.05762466327142 MOVE-II 1 43780U 18099Y 24333.43872208 .00068488 00000-0 22396-2 0 9996 2 43780 97.4986 36.2407 0005375 119.7806 240.3970 15.31440671327910 SNUSat 2 1 43782U 18099AA 24333.39437338 .00016566 00000-0 10319-2 0 9996 2 43782 97.4922 26.2737 0014684 100.1706 260.1180 15.09552627327309 SnugLite 1 43784U 18099AC 24333.12130487 .00017946 00000-0 10620-2 0 9992 2 43784 97.4735 25.3163 0005223 105.1870 254.9938 15.11480614327358 ITASat 1 1 43786U 18099AE 24333.09472102 .00014584 00000-0 93453-3 0 9994 2 43786 97.4893 25.9663 0016467 148.9707 211.2497 15.08521043327244 EAGLET 1 1 43790U 18099AJ 24333.08245216 .00010230 00000-0 70413-3 0 9997 2 43790 97.5090 26.3672 0014260 127.8538 232.3982 15.05989778326917 ESEO 1 43792U 18099AL 24333.53479185 .00005378 00000-0 42279-3 0 9999 2 43792 97.4867 22.4156 0010017 92.3984 267.8387 15.01229810326845 CSIM 1 43793U 18099AM 24333.80228814 .00074254 00000-0 24600-2 0 9997 2 43793 97.5134 38.4480 0009169 96.7884 263.4400 15.30966955327810 JO-97 1 43803U 18099AX 24333.43645619 .00024318 00000-0 13527-2 0 9996 2 43803 97.4995 28.8888 0009773 97.1607 263.0736 15.13616420327481 Suomi 100 1 43804U 18099AY 24333.40247551 .00020214 00000-0 11697-2 0 9994 2 43804 97.5055 28.5486 0015326 98.0314 262.2656 15.12176891327447 ISAT 1 43879U 18111D 24333.51808964 .00032499 00000-0 15579-2 0 9995 2 43879 97.6064 239.1299 0012287 140.4764 219.7368 15.18775527324289 UWE-4 1 43880U 18111E 24332.53053763 .00026577 00000-0 13507-2 0 9996 2 43880 97.5996 237.6559 0014913 156.3694 203.8227 15.16745481324127 Sparrow 1 43881U 18111F 24333.49064742 .00033510 00000-0 15738-2 0 9995 2 43881 97.6180 241.3651 0007950 174.5887 185.5434 15.19517930324358 Prox-1 1 44339U 19036A 24333.43288252 .00024288 00000-0 36475-2 0 9992 2 44339 23.9987 244.1585 0007730 36.3886 323.7134 14.73074216289437 SONATE 1 44400U 19038Q 24333.58375781 .00060867 00000-0 11333-2 0 9992 2 44400 97.7127 336.5875 0009517 228.7188 131.3243 15.48602697299388 Taurus 1 1 44530U 19059C 24333.78402345 .00021525 00000-0 44209-2 0 9994 2 44530 98.5890 99.0286 0010586 266.9010 93.0978 14.60600238275746 Duchifat 3 1 44854U 19089C 24333.76731967 .00046497 00000-0 16855-2 0 9990 2 44854 36.9497 122.7074 0010924 35.8645 324.2837 15.27352230273275 TO-108 1 44881U 19093C 24333.81066342 .00003828 00000-0 45697-3 0 9997 2 44881 97.8154 47.3913 0014957 139.9185 220.3136 14.84745943267461 FloripaSat 1 1 44885U 19093G 24333.79217511 .00016541 00000-0 15375-2 0 9999 2 44885 97.8325 55.4523 0012458 126.8707 233.3657 14.94370002267914 RS-44 1 44909U 19096E 24333.37024418 .00000047 00000-0 14147-3 0 9996 2 44909 82.5223 355.6768 0217974 27.6350 333.6138 12.79736369229972 UPMSat 2 1 46276U 20061E 24333.75430097 .00048535 00000-0 10090-2 0 9991 2 46276 97.2760 39.0283 0000287 188.8101 171.3143 15.45502360235480 AmicalSat 1 46287U 20061R 24332.46135586 .00231527 00000-0 18940-2 0 9992 2 46287 97.3218 42.3132 0002086 292.5784 67.5257 15.69833807234839 SALSAT 1 46495U 20068K 24333.65248292 .00017263 00000-0 85534-3 0 9994 2 46495 97.8381 297.7755 0014869 105.6596 254.6278 15.17734836229213 IDEASSat 1 47458U 21006AX 24333.57248804 .00708442 21333-3 18936-2 0 9999 2 47458 97.2937 37.2657 0004338 297.5495 62.5340 15.94507043214179 CubeSX-Sirius-HSE 1 47951U 21022V 24333.86038622 .00069338 00000-0 16721-2 0 9991 2 47951 97.4409 233.0964 0006730 280.0599 79.9888 15.40954354203786 CubeSX-HSE 1 47952U 21022W 24333.79334459 .00071502 00000-0 17027-2 0 9997 2 47952 97.4407 233.1686 0006683 277.1947 82.8540 15.41326925203784 KSU-Cubesat 1 47954U 21022Y 24333.47014738 .00113234 00000-0 20236-2 0 9994 2 47954 97.4413 235.3698 0003931 264.3620 95.7183 15.49607409203614 GRBAlpha 1 47959U 21022AD 24333.81629153 .00076572 00000-0 18232-2 0 9996 2 47959 97.4407 233.3601 0006679 277.6860 82.3628 15.41308552202613 Orbicraft-Zorkiy 1 47960U 21022AE 24333.80409710 .00092817 00000-0 18473-2 0 9999 2 47960 97.4451 235.5022 0004680 272.7187 87.3527 15.46577267203411 TUBIN 1 48900U 21059X 24333.74629342 .00045615 00000-0 10949-2 0 9996 2 48900 97.6611 124.5703 0005320 223.0721 137.0109 15.41216923190164 LEDSAT 1 49069U 21073D 24333.63239606 .00050698 00000-0 13967-2 0 9997 2 49069 97.4186 44.6830 0015496 60.9932 299.2863 15.36852752181591 CUTE 1 49263U 21088D 24332.70473837 .00057028 00000-0 17844-2 0 9994 2 49263 97.4777 38.7281 0010615 221.4430 138.6008 15.32872283174565 TeikyoSat 4 1 49396U 21102B 24333.72003264 .00006314 00000-0 43534-3 0 9992 2 49396 97.4397 12.9904 0014542 76.2067 284.0778 15.06075752167504 Z-Sat 1 49399U 21102E 24333.83934189 .00009870 00000-0 58418-3 0 9993 2 49399 97.4105 15.1834 0020575 54.4219 305.8925 15.11447149167832 KOSEN 1 1 49402U 21102H 24333.55500039 .00015681 00000-0 82068-3 0 9995 2 49402 97.4016 17.0640 0018217 36.6325 323.6150 15.15772636168008 HO-113 1 50466U 21131B 24333.88083391 .00001983 00000-0 63964-3 0 9996 2 50466 98.5222 58.1850 0004052 9.5305 350.5960 14.40295636153705 IRIS-A 1 51044U 22002BN 24333.44629469 .00068785 00000-0 13798-2 0 9993 2 51044 97.3632 40.6313 0004724 159.4713 200.6727 15.46446982159660 Planetum 1 1 52738U 22057G 24333.65579122 .05368615 25621-5 14475-2 0 9991 2 52738 97.5545 110.5066 0010110 292.3147 67.7073 16.28123814140205 Foresail-1 1 52766U 22057AL 24333.28134018 .00067844 00000-0 13494-2 0 9996 2 52766 97.5966 104.3371 0007676 265.2202 94.8171 15.46680133139677 SNUGLITE 2 1 52899U 22065F 24333.37981440 .00004455 00000-0 89483-3 0 9992 2 52899 98.1410 111.7161 0007614 7.0439 353.0868 14.62117292128242 IO-117 1 53106U 22080B 24331.77042742 -.00000003 00000-0 00000-0 0 9997 2 53106 70.1300 136.0386 0008362 70.8561 289.3004 6.42557781 55710 FO-118 1 54684U 22167C 24333.88530690 .00131402 00000-0 20304-2 0 9991 2 54684 97.6141 125.0702 0008756 279.6279 80.3984 15.53598741109631 SSS-2B 1 56184U 23054G 24333.85142551 .00400730 00000-0 18782-2 0 9996 2 56184 97.3393 236.2488 0004372 94.6601 265.5167 15.82163425 91712 SO-120 1 56992U 23084BU 24333.78731080 .00165626 00000-0 24088-2 0 9997 2 56992 97.5376 97.5368 0005600 179.4373 180.6888 15.55170276 81482 MRC-100 1 56993U 23084BV 24333.31772027 .00312283 00000-0 27715-2 0 9996 2 56993 97.5339 98.6511 0003983 217.0466 143.0520 15.67584382 81529 UmKA 1 (RS40S) 1 57172U 23091G 24333.88897901 .00013732 00000-0 81422-3 0 9998 2 57172 97.5905 24.4641 0014301 279.5179 80.4435 15.11398279 78330 CubeBel-2 (EU11S) 1 57175U 23091K 24333.83584899 .00020756 00000-0 11608-2 0 9997 2 57175 97.5902 24.6763 0012647 291.6036 68.3847 15.13430619 78345 VERONIKA 1 58261U 23174F 24333.76579944 .00064834 00000-0 18920-2 0 9992 2 58261 97.4433 48.2367 0009156 22.5610 337.6034 15.35060940 58823 KAFASAT 1 58317U 23174BP 24333.47772183 .00100149 00000-0 21593-2 0 9992 2 58317 97.4363 49.7079 0007401 350.0143 10.0957 15.44177170 58914 ENSO 1 58470U 23185J 24333.83652331 .00048440 00000-0 14308-2 0 9997 2 58470 97.4059 39.7738 0010643 58.5144 301.7138 15.34745022 55284 EIRSAT-1 1 58472U 23185L 24333.81299885 .00060024 00000-0 16509-2 0 9995 2 58472 97.4050 40.0751 0009808 57.6615 302.5577 15.36932192 55308 SONATE-2 1 59112U 24043Q 24333.29635172 .00030025 00000-0 11627-2 0 9990 2 59112 97.4946 96.3086 0013666 80.3690 279.9091 15.26037009 40766 MO-122 1 60209U 24125G 24332.55394218 .00028191 00000-0 10862-2 0 9992 2 60209 97.2997 181.4204 0024637 107.4107 252.9828 15.26015457 22268 GRBBeta 1 60237U 24128C 24333.17112535 .00008942 00000-0 73360-3 0 9990 2 60237 61.9954 32.3866 0028820 7.9083 352.2455 14.99515718 21165 Curium One 1 60242U 24128H 24332.93772769 .00013960 00000-0 11212-2 0 9993 2 60242 61.9857 33.3062 0029098 358.9475 1.1548 14.99984648 21136 ROBUSTA-3A 1 60243U 24128J 24333.75967989 .00016470 00000-0 13297-2 0 9999 2 60243 61.9924 30.7429 0027318 356.6691 3.4212 14.99723191 21258 CatSat 1 60246U 24125J 24333.57659091 .00023092 00000-0 91935-3 0 9995 2 60246 97.2800 183.2497 0050222 59.9138 300.7065 15.24058937 20520 CosmoGirlSat 1 60953U 98067WT 24333.67008497 .00774501 26800-3 19388-2 0 9993 2 60953 51.6182 209.7729 0010845 212.2474 147.7872 15.95038477 14307 Sakura 1 60954U 98067WU 24331.73493809 .02223257 53765-2 20174-2 0 9997 2 60954 51.6124 217.8107 0010323 214.7181 145.3161 16.13092160 14021 CySat-1 1 61501U 98067WZ 24333.40847480 .00296564 00000-0 24611-2 0 9991 2 61501 51.6329 218.6045 0012380 210.1707 149.8578 15.68637963 7990 DORA 1 61502U 98067XA 24332.70883291 .05483889 11710-4 31917-2 0 9998 2 61502 51.5998 218.3610 0016594 207.4139 152.6004 16.17695191 7927 AO-123 1 99130U 24099A 24333.51783565 .00064425 00000-0 27016-2 0 00003 2 99130 097.3813 197.9452 0017922 153.5116 004.4393 15.23389487000019 /EX
